Location: Peebles
(55.6412°N, 3.1714°W)
Time: 14:09:10
(UTC+01:00)

ZHUHAI-1 OVS-02 - Pass Details

Date: 30 June 2022
Orbit: 492 x 507 km, 97.2° (Epoch: 17 August)

Event Time Altitude Azimuth Distance (km) Brightness Sun altitude
Rises 22:49:24 0° 197° (SSW) 2,570 ? -5.3°
Reaches altitude 10° 22:51:45 10° 212° (SSW) 1,695 ? -5.4°
Maximum altitude 22:54:46 24° 267° (W) 1,074 ? -5.7°
Drops below altitude 10° 22:57:49 10° 323° (NW) 1,716 ? -5.9°
Sets 23:00:13 0° 338° (NNW) 2,609 ? -6.1°
